Location: Bennemühlen
(52.5740°N, 9.7135°E)
Time: 07:48:48
(UTC+00:00)

Transit 2A - All Passes

Search period start: 16 February 2026 00:00
Search period end: 26 February 2026 00:00
Orbit: 589 x 955 km, 66.7° (Epoch: 15 February)

Date Brightness Start Highest point End Pass type
(mag) Time Alt. Az. Time Alt. Az. Time Alt. Az.
16 Feb - 11:04:26 10° SE 11:08:27 18° ESE 11:12:33 10° ENE daylight
16 Feb - 12:44:25 10° SSW 12:50:37 74° SE 12:56:58 10° NE daylight
16 Feb - 14:28:24 10° W 14:34:16 39° NNW 14:40:09 10° NE daylight
16 Feb - 16:14:10 10° WNW 16:19:05 23° N 16:23:54 10° NE daylight
16 Feb - 17:59:04 10° NW 18:04:14 26° NNE 18:09:09 10° ENE visible
16 Feb - 19:42:32 10° NW 19:48:39 56° NE 19:54:17 10° ESE visible
16 Feb - 21:26:01 10° NW 21:31:38 40° WSW 21:36:48 10° S visible
17 Feb - 10:29:58 10° SE 10:32:30 13° E 10:35:02 10° ENE daylight
17 Feb - 12:08:17 10° SSW 12:14:19 56° ESE 12:20:31 10° NE daylight
17 Feb - 13:51:38 10° WSW 13:57:41 47° NW 14:03:46 10° NE daylight
17 Feb - 15:37:14 10° WNW 15:42:18 24° NNW 15:47:16 10° NE daylight
17 Feb - 17:22:29 10° NW 17:27:27 24° NNE 17:32:14 10° ENE visible
17 Feb - 19:06:09 10° NW 19:12:06 45° NE 19:17:38 10° ESE visible
17 Feb - 20:49:29 10° NW 20:55:26 55° WSW 21:00:52 10° SSE visible
17 Feb - 22:35:32 10° W 22:37:07 11° W 22:38:40 10° WSW visible
18 Feb - 11:32:21 10° S 11:38:06 42° ESE 11:44:00 10° NE daylight
18 Feb - 13:14:57 10° WSW 13:21:08 58° NW 13:27:23 10° NE daylight
18 Feb - 15:00:15 10° WNW 15:05:32 27° NNW 15:10:44 10° NE daylight
18 Feb - 16:45:48 10° NW 16:50:39 22° N 16:55:20 10° ENE daylight
18 Feb - 18:29:45 10° NW 18:35:30 37° NNE 18:40:52 10° E visible
18 Feb - 20:13:02 10° NW 20:19:09 74° SW 20:24:44 10° SSE visible
18 Feb - 21:57:38 10° WNW 22:01:11 16° WSW 22:04:33 10° SW visible
19 Feb - 10:56:37 10° S 11:01:57 31° ESE 11:07:24 10° NE daylight
19 Feb - 12:38:24 10° SW 12:44:40 74° NW 12:51:01 10° NE daylight
19 Feb - 14:23:18 10° W 14:28:48 30° NNW 14:34:14 10° NE daylight
19 Feb - 16:09:03 10° NW 16:13:50 22° N 16:18:29 10° NE daylight
19 Feb - 17:53:19 10° NW 17:58:50 31° NNE 18:04:01 10° E visible
19 Feb - 19:36:36 10° NW 19:42:48 85° NE 19:48:26 10° SE visible
19 Feb - 21:20:36 10° WNW 21:25:11 23° WSW 21:29:28 10° SSW visible
20 Feb - 10:21:10 10° SSE 10:25:51 23° ESE 10:30:38 10° ENE daylight
20 Feb - 12:01:59 10° SW 12:08:16 88° SE 12:14:38 10° NE daylight
20 Feb - 13:46:23 10° W 13:52:06 35° NNW 13:57:48 10° NE daylight
20 Feb - 15:32:12 10° NW 15:37:02 22° N 15:41:43 10° NE daylight
20 Feb - 17:16:50 10° NW 17:22:07 27° NNE 17:27:08 10° ENE visible
20 Feb - 19:00:13 10° NW 19:06:22 66° NE 19:12:00 10° SE visible
20 Feb - 20:43:51 10° NW 20:49:06 32° WSW 20:53:56 10° S visible
21 Feb - 09:46:10 10° SE 09:49:50 16° ESE 09:53:33 10° ENE daylight
21 Feb - 11:25:44 10° SSW 11:31:55 68° ESE 11:38:13 10° NE daylight
21 Feb - 13:09:32 10° WSW 13:15:28 41° NW 13:21:24 10° NE daylight
21 Feb - 14:55:17 10° WNW 15:00:13 23° N 15:05:03 10° NE daylight
21 Feb - 16:40:18 10° NW 16:45:22 25° NNE 16:50:13 10° ENE daylight
21 Feb - 18:23:49 10° NW 18:29:52 52° NE 18:35:25 10° ESE visible
21 Feb - 20:07:15 10° NW 20:12:57 44° WSW 20:18:09 10° S visible
22 Feb - 09:12:10 10° ESE 09:13:53 11° E 09:15:37 10° E daylight
22 Feb - 10:49:39 10° SSW 10:55:38 51° ESE 11:01:45 10° NE daylight
22 Feb - 12:32:47 10° WSW 12:38:53 50° NW 12:45:02 10° NE daylight
22 Feb - 14:18:19 10° WNW 14:23:26 25° NNW 14:28:27 10° NE daylight
22 Feb - 16:03:41 10° NW 16:08:35 23° N 16:13:17 10° ENE daylight
22 Feb - 17:47:26 10° NW 17:53:18 42° NE 17:58:43 10° ESE visible
22 Feb - 19:30:45 10° NW 19:36:44 60° WSW 19:42:09 10° SSE visible
22 Feb - 21:16:12 10° WNW 21:18:30 12° W 21:20:44 10° WSW visible
23 Feb - 10:13:46 10° S 10:19:26 38° ESE 10:25:12 10° NE daylight
23 Feb - 11:56:08 10° SW 12:02:23 63° NW 12:08:39 10° NE daylight
23 Feb - 13:41:20 10° WNW 13:46:41 27° NNW 13:51:55 10° NE daylight
23 Feb - 15:26:59 10° NW 15:31:47 22° N 15:36:23 10° NE daylight
23 Feb - 17:11:01 10° NW 17:16:40 35° NNE 17:21:56 10° E visible
23 Feb - 18:54:17 10° NW 19:00:25 81° SW 19:05:58 10° SSE visible
23 Feb - 20:38:41 10° WNW 20:42:32 18° WSW 20:46:11 10° SW visible
24 Feb - 09:38:07 10° SSE 09:43:17 28° ESE 09:48:33 10° NE daylight
24 Feb - 11:19:37 10° SW 11:25:56 79° NW 11:32:16 10° NE daylight
24 Feb - 13:04:23 10° W 13:09:57 31° NNW 13:15:27 10° NE daylight
24 Feb - 14:50:11 10° NW 14:54:57 22° N 14:59:35 10° NE daylight
24 Feb - 16:34:34 10° NW 16:39:59 30° NNE 16:45:04 10° E daylight
24 Feb - 18:17:53 10° NW 18:24:02 78° NE 18:29:37 10° SE visible
24 Feb - 20:01:45 10° NW 20:06:31 25° WSW 20:10:56 10° SSW visible
25 Feb - 09:02:46 10° SSE 09:07:13 21° ESE 09:11:43 10° ENE daylight
25 Feb - 10:43:15 10° SSW 10:49:32 81° SE 10:55:52 10° NE daylight
25 Feb - 12:27:28 10° W 12:33:17 36° NNW 12:39:02 10° NE daylight
25 Feb - 14:13:18 10° WNW 14:18:08 22° N 14:22:50 10° NE daylight
25 Feb - 15:58:04 10° NW 16:03:15 26° NNE 16:08:09 10° ENE daylight
25 Feb - 17:41:30 10° NW 17:47:34 61° NE 17:53:08 10° SE visible
25 Feb - 19:25:04 10° NW 19:30:25 35° WSW 19:35:20 10° S visible
